Meteo Giornale » Osservazioni meteo Stati Uniti (USA) » Mcguire

ore: 14:55 - Osservazioni Meteo Mcguire
Lat. 40° 1' N Lon. 74° 36' W Alt. 41 metri s.l.m.

sereno

32 °C

Sereno

Temp. 24 Ore

21 °C

32 °C

Sud-Ovest

13 Km/h

Dew point 23 °C

Umidità 59 %

Visibilità  10 Km

Il sole sorge alle ore 06:26

Il sole tramonta alle ore 19:30

Data e Ora Cielo e Fenomeni T °C DP °C Um. % Pres. hPa Vis. km Vento km/h
Oggi h: 14:55 sereno Sereno 32 23 59 1014 10 SO 13
Oggi h: 13:55 molto_nuvoloso Molto Nuvoloso 30 24 70 1014 10 O/SO 9.3
Oggi h: 12:55 molto_nuvoloso Molto Nuvoloso 29 24 74 1015 10 SO 9.3
Oggi h: 12:32 molto_nuvoloso Molto Nuvoloso 29 24 74 1015 10 N 0
Oggi h: 12:20 coperto_pioggia Pioviggine 28 24 78 1015 10 N 5.5
Oggi h: 12:11 molto_nuvoloso Molto Nuvoloso 28 24 78 1015 10 O/SO 13
Oggi h: 12:00 coperto_pioggia Pioviggine 29 23 70 1016 10 O/SO 13
Oggi h: 11:55 molto_nuvoloso Molto Nuvoloso 29 24 74 1015 10 O 9.3
Oggi h: 10:55 molto_nuvoloso Molto Nuvoloso 29 24 74 1016 10 O 13
Oggi h: 09:55 molto_nuvoloso Molto Nuvoloso 27 24 83 1015 10 O/SO 7.4
Oggi h: 08:55 nuvoloso Nuvoloso 24 23 94 1016 11 S/SO 9.3
Oggi h: 08:40 foschia Foschia 24 23 94 1016 10 SO 9.3
Oggi h: 08:39 foschia Foschia 24 23 94 1016 10 SO 9.3
Oggi h: 08:31 foschia Foschia 24 23 94 1016 10 SO 11.1
Oggi h: 08:10 foschia Foschia 24 23 94 1016 8 SO 9.3
Oggi h: 07:55 molto_nuvoloso Molto Nuvoloso 23 23 100 1016 14 S/SO 7.4
Oggi h: 07:50 molto_nuvoloso Molto Nuvoloso 23 23 100 1016 14 S/SO 7.4
Oggi h: 06:55 foschia Foschia 23 22 94 1016 10 N 5.5
Oggi h: 06:45 foschia Foschia 23 22 94 1016 10 S/SO 7.4
Oggi h: 05:55 coperto Coperto 22 22 100 1016 11 SO 7.4
Oggi h: 05:20 coperto Coperto 23 22 94 1016 13 S/SO 9.3
Oggi h: 05:00 coperto Coperto 22 22 100 1016 14 SO 9.3
Oggi h: 04:55 coperto Coperto 22 21 94 1016 14 SO 7.4
Oggi h: 04:40 coperto Coperto 22 21 94 1016 14 N 5.5
Oggi h: 03:55 nuvoloso Nuvoloso 22 21 94 1016 10 N 5.5
Oggi h: 03:15 coperto Coperto 22 21 94 1016 10 S 7.4
Oggi h: 02:55 coperto Coperto 22 21 94 1017 10 S/SO 9.3
Oggi h: 02:48 coperto Coperto 22 21 94 1016 10 S 11.1
Oggi h: 02:38 coperto Coperto 22 21 94 1017 10 N 0
Oggi h: 02:33 coperto_pioggia Pioviggine 22 21 94 1017 10 N 0
Oggi h: 02:23 coperto_pioggia Pioggia 22 21 94 1017 10 N 0
Oggi h: 02:21 coperto_pioggia Pioggia 22 21 94 1017 10 N 0
Oggi h: 01:56 coperto_pioggia Pioggia 22 21 94 1017 10 S 11.1
Oggi h: 01:55 molto_nuvoloso Molto Nuvoloso 22 21 94 1017 10 S 9.3
Oggi h: 00:55 molto_nuvoloso Molto Nuvoloso 22 20 88 1018 10 S 7.4
Ieri h: 23:55 molto_nuvoloso Molto Nuvoloso 22 20 88 1018 10 N 5.5
Ieri h: 22:55 molto_nuvoloso Molto Nuvoloso 22 20 88 1018 10 N 0
Ieri h: 21:55 nuvoloso Nuvoloso 21 20 94 1018 10 N 0
Ieri h: 20:55 poco_nuvoloso Poco Nuvoloso 22 20 88 1018 10 N 5.5
Ieri h: 19:55 coperto Coperto 23 20 83 1018 10 S/SE 7.4
Ieri h: 18:55 molto_nuvoloso Molto Nuvoloso 24 20 78 1018 10 SE 11.1
Ieri h: 17:55 molto_nuvoloso Molto Nuvoloso 25 21 78 1018 10 N 5.5
Ieri h: 16:55 molto_nuvoloso Molto Nuvoloso 26 21 73 1019 10 N 0